JCSAT-5A

Last updated on Tue Jul 08 2025 00:02:44 GMT+0000 (Coordinated Universal Time)

1 29045U 06010A 25188.58973812 -.00000311 00000+0 00000+0 0 9998 2 29045 0.2168 89.2140 0002222 5.1707 175.7747 1.00272499 70314
UTC large
Height (km)
Speed (km/s)
/
Latitude / Longitude
Inclination (degrees)
Orbital Period (minutes)
Azimuth
Elevation
Range (km)
Doppler Factor

Next 0 passes for location: London (51.5072 / 0.1276)

Sorry there are no passes over London.